{"data":{"norad_id":59533,"epoch":"2026-09-21T12:55:10.348608Z","epoch_age_seconds":78819,"freshness":"FRESH","line1":"1 59533U 24073Y   26264.53831422  .00001358  00000+0  58845-4 0  9999","line2":"2 59533  43.0036 292.3647 0001246 256.0729 103.9985 15.27585725136125","mean_motion":15.27585725,"eccentricity":0.0001246,"inclination_deg":43.0036,"raan_deg":292.3647,"arg_perigee_deg":256.0729,"mean_anomaly_deg":103.9985,"bstar":5.8845e-5,"rev_number":13612,"period_min":94.266395426024,"perigee_km":482.17705173204,"apogee_km":483.88685503522,"semimajor_km":6861.1689533836,"source":"CELESTRAK","updated_at":"2026-09-22T09:00:48.967137Z"}}